Location: Mesa Vista Observatory
(35.5777°N, 105.6987°W)
Time: 13:32:39
(UTC-06:00)

Tiangong 2 - Visible Passes

Search period start: 16 June 2019 00:00
Search period end: 26 June 2019 00:00
Orbit: 376 x 388 km, 42.8° (Epoch: 16 June)

Date Brightness Start Highest point End Pass type
(mag) Time Alt. Az. Time Alt. Az. Time Alt. Az.
21 Jun 3.4 05:06:41 10° S 05:08:45 16° SE 05:10:51 10° E visible
23 Jun 2.3 04:42:57 16° SSW 04:44:50 31° SE 04:47:40 10° E visible
24 Jun 3.4 03:45:26 15° SE 03:45:26 15° SE 03:46:47 10° ESE visible
25 Jun 1.2 04:20:01 38° SSW 04:20:59 60° SSE 04:24:05 10° ENE visible
